{"data":{"norad_id":59963,"epoch":"2026-09-21T08:07:15.530880Z","epoch_age_seconds":105107,"freshness":"FRESH","line1":"1 59963U 24107U   26264.33837420  .00000237  00000+0  18158-4 0  9994","line2":"2 59963  53.1596 233.7498 0001507  87.6733 272.4442 15.34392081129795","mean_motion":15.34392081,"eccentricity":0.0001507,"inclination_deg":53.1596,"raan_deg":233.7498,"arg_perigee_deg":87.6733,"mean_anomaly_deg":272.4442,"bstar":1.8158e-5,"rev_number":12979,"period_min":93.848242429765,"perigee_km":461.69585907396,"apogee_km":463.75769541642,"semimajor_km":6840.8637772452,"source":"CELESTRAK","updated_at":"2026-09-22T09:00:49.136689Z"}}